When you browse on this site, cookies collect data to enhance your experience and personalize the content and advertising you see.
Visit our Privacy Policy to learn more. By continuing to use the site, you agree to this use of cookies and data.
  • In Lithuania
  • List of Countries
  • For 7 days
  • Water Temperature
  • Satellite Maps
  • Weather Map
  • Weather Widgets
  • user-avatar
    Login

    Hourly Weather Malye Yagury

    Today, 10 December, Monday

    Time Temperature Precipitation Wind Pressure Humidity
    00:00 -2°C° 0 mm 6 mps 748 mmHg 89%
    01:00 -2°C° 0 mm 6 mps 748 mmHg 89%
    02:00 -2°C° 0 mm 6 mps 748 mmHg 89%
    03:00 -1°C° 0 mm 5 mps 748 mmHg 87%
    04:00 -1°C° 0 mm 5 mps 748 mmHg 87%
    05:00 -1°C° 0 mm 5 mps 747 mmHg 87%
    06:00 -2°C° 0 mm 6 mps 747 mmHg 87%
    07:00 -1°C° 0 mm 6 mps 747 mmHg 87%
    08:00 -1°C° 0 mm 6 mps 747 mmHg 86%
    09:00 0°C° 0 mm 7 mps 746 mmHg 86%
    10:00 +2°C° 0 mm 7 mps 746 mmHg 84%
    11:00 +2°C° 0 mm 7 mps 746 mmHg 82%
    12:00 +3°C° 0 mm 7 mps 746 mmHg 80%
    13:00 +3°C° 0 mm 7 mps 745 mmHg 80%
    14:00 +3°C° 0 mm 7 mps 745 mmHg 81%
    15:00 +3°C° 0 mm 7 mps 745 mmHg 80%
    16:00 +3°C° 0 mm 7 mps 745 mmHg 81%
    17:00 +3°C° 0 mm 7 mps 745 mmHg 83%
    18:00 +3°C° 0 mm 7 mps 745 mmHg 84%
    19:00 +3°C° 0 mm 7 mps 745 mmHg 85%
    20:00 +3°C° 0 mm 6 mps 745 mmHg 86%
    21:00 +3°C° 0 mm 6 mps 745 mmHg 87%
    22:00 +3°C° 0 mm 5 mps 745 mmHg 88%
    23:00 +3°C° 0 mm 5 mps 745 mmHg 89%

    Tomorrow, 11 December, Tuesday

    Time Temperature Precipitation Wind Pressure Humidity
    00:00 +4°C° 0 mm 4 mps 745 mmHg 90%
    01:00 +4°C° 0 mm 4 mps 745 mmHg 91%
    02:00 +3°C° 0 mm 4 mps 745 mmHg 92%
    03:00 +3°C° 0 mm 4 mps 745 mmHg 93%
    04:00 +3°C° 0 mm 4 mps 745 mmHg 93%
    05:00 +3°C° 0 mm 4 mps 745 mmHg 93%
    06:00 +3°C° 0 mm 4 mps 744 mmHg 94%
    07:00 +2°C° 0 mm 5 mps 744 mmHg 93%
    08:00 +2°C° 0 mm 5 mps 744 mmHg 93%
    09:00 +2°C° 0 mm 5 mps 744 mmHg 92%
    10:00 +3°C° 0 mm 5 mps 743 mmHg 90%
    11:00 +4°C° 0 mm 6 mps 742 mmHg 87%
    12:00 +5°C° 0 mm 6 mps 742 mmHg 85%
    13:00 +5°C° 0 mm 6 mps 741 mmHg 85%
    14:00 +5°C° 0 mm 6 mps 740 mmHg 85%
    15:00 +7°C° 0 mm 6 mps 740 mmHg 84%
    16:00 +6°C° 0 mm 5 mps 740 mmHg 87%
    17:00 +6°C° 0 mm 5 mps 740 mmHg 90%
    18:00 +6°C° 0 mm 4 mps 740 mmHg 92%
    19:00 +7°C° 0.1 mm 3 mps 740 mmHg 93%
    20:00 +7°C° 0.1 mm 2 mps 740 mmHg 94%
    21:00 +7°C° 0.1 mm 1 mps 741 mmHg 95%
    22:00 +6°C° 0.4 mm 2 mps 741 mmHg 95%
    23:00 +6°C° 0.4 mm 2 mps 742 mmHg 96%

    Day after tomorrow, 12 December, Wednesday

    Time Temperature Precipitation Wind Pressure Humidity
    00:00 +6°C° 0.4 mm 2 mps 742 mmHg 96%
    01:00 +6°C° 0.1 mm 2 mps 743 mmHg 96%
    02:00 +6°C° 0.1 mm 2 mps 743 mmHg 96%
    03:00 +6°C° 0.1 mm 1 mps 743 mmHg 96%
    04:00 +6°C° 0 mm 1 mps 744 mmHg 95%
    05:00 +6°C° 0 mm 1 mps 744 mmHg 95%
    06:00 +6°C° 0 mm 1 mps 744 mmHg 94%
    07:00 +6°C° 0 mm 1 mps 745 mmHg 93%
    08:00 +6°C° 0 mm 1 mps 745 mmHg 92%
    09:00 +6°C° 0 mm 1 mps 746 mmHg 91%
    10:00 +7°C° 0 mm 1 mps 746 mmHg 86%
    11:00 +7°C° 0 mm 2 mps 746 mmHg 81%
    12:00 +8°C° 0 mm 2 mps 745 mmHg 76%
    13:00 +8°C° 0 mm 2 mps 745 mmHg 75%
    14:00 +10°C° 0 mm 1 mps 745 mmHg 75%
    15:00 +10°C° 0 mm 1 mps 745 mmHg 74%
    16:00 +9°C° 0.1 mm 1 mps 745 mmHg 77%
    17:00 +8°C° 0.1 mm 2 mps 745 mmHg 80%
    18:00 +7°C° 0.1 mm 2 mps 745 mmHg 83%
    19:00 +7°C° 0.2 mm 2 mps 745 mmHg 84%
    20:00 +7°C° 0.2 mm 2 mps 745 mmHg 85%
    21:00 +5°C° 0.2 mm 3 mps 745 mmHg 86%
    22:00 +6°C° 0.5 mm 2 mps 746 mmHg 87%
    23:00 +6°C° 0.5 mm 2 mps 746 mmHg 88%

    13 December, Thursday

    Time Temperature Precipitation Wind Pressure Humidity
    00:00 +6°C° 0.5 mm 2 mps 746 mmHg 89%
    01:00 +6°C° 0.7 mm 2 mps 746 mmHg 89%
    02:00 +5°C° 0.7 mm 2 mps 746 mmHg 90%
    03:00 +5°C° 0.7 mm 2 mps 746 mmHg 91%
    04:00 +5°C° 0.4 mm 2 mps 746 mmHg 91%
    05:00 +6°C° 0.4 mm 1 mps 747 mmHg 92%
    06:00 +6°C° 0.4 mm 1 mps 747 mmHg 92%
    07:00 +6°C° 0.5 mm 1 mps 747 mmHg 92%
    08:00 +6°C° 0.5 mm 1 mps 748 mmHg 93%
    09:00 +6°C° 0.5 mm 1 mps 748 mmHg 93%
    10:00 +6°C° 0.5 mm 1 mps 749 mmHg 91%
    11:00 +6°C° 0.5 mm 1 mps 749 mmHg 90%
    12:00 +5°C° 0.5 mm 2 mps 749 mmHg 88%
    13:00 +4°C° 0.3 mm 3 mps 750 mmHg 87%
    14:00 +4°C° 0.3 mm 3 mps 750 mmHg 87%
    15:00 +3°C° 0.3 mm 4 mps 750 mmHg 86%
    16:00 +3°C° 0.2 mm 4 mps 751 mmHg 85%
    17:00 +1°C° 0.2 mm 4 mps 751 mmHg 85%
    18:00 +2°C° 0.2 mm 3 mps 752 mmHg 85%
    19:00 +2°C° 0 mm 3 mps 752 mmHg 86%
    20:00 +3°C° 0 mm 2 mps 753 mmHg 86%
    21:00 +3°C° 0 mm 1 mps 753 mmHg 87%
    22:00 +3°C° 0 mm 1 mps 753 mmHg 88%
    23:00 +3°C° 0 mm 1 mps 753 mmHg 89%

    14 December, Friday

    Time Temperature Precipitation Wind Pressure Humidity
    00:00 +3°C° 0 mm 1 mps 753 mmHg 89%
    01:00 +2°C° 0 mm 1 mps 754 mmHg 89%
    02:00 +2°C° 0 mm 1 mps 754 mmHg 89%
    03:00 +2°C° 0 mm 1 mps 754 mmHg 89%
    04:00 +2°C° 0 mm 1 mps 754 mmHg 88%
    05:00 +2°C° 0 mm 1 mps 754 mmHg 87%
    06:00 +2°C° 0 mm 1 mps 754 mmHg 86%
    07:00 +2°C° 0 mm 1 mps 754 mmHg 84%
    08:00 +2°C° 0 mm 1 mps 754 mmHg 81%
    09:00 +2°C° 0 mm 2 mps 754 mmHg 79%
    10:00 +3°C° 0 mm 2 mps 754 mmHg 74%
    11:00 +4°C° 0 mm 2 mps 754 mmHg 69%
    12:00 +5°C° 0 mm 2 mps 753 mmHg 64%
    13:00 +5°C° 0 mm 2 mps 753 mmHg 64%
    14:00 +5°C° 0 mm 2 mps 753 mmHg 64%
    15:00 +5°C° 0 mm 2 mps 753 mmHg 65%
    16:00 +4°C° 0 mm 2 mps 753 mmHg 68%
    17:00 +3°C° 0 mm 2 mps 753 mmHg 71%
    18:00 +2°C° 0 mm 2 mps 753 mmHg 75%
    19:00 +2°C° 0 mm 2 mps 754 mmHg 75%
    20:00 +2°C° 0 mm 2 mps 754 mmHg 76%
    21:00 +2°C° 0 mm 2 mps 754 mmHg 76%
    22:00 +2°C° 0 mm 2 mps 754 mmHg 77%
    23:00 +1°C° 0 mm 2 mps 754 mmHg 78%

    15 December, Saturday

    Time Temperature Precipitation Wind Pressure Humidity
    00:00 +1°C° 0 mm 2 mps 754 mmHg 79%
    01:00 +1°C° 0 mm 2 mps 754 mmHg 78%
    02:00 +1°C° 0 mm 2 mps 754 mmHg 78%
    03:00 +1°C° 0 mm 2 mps 754 mmHg 78%
    04:00 +1°C° 0 mm 2 mps 754 mmHg 79%
    05:00 +1°C° 0 mm 2 mps 754 mmHg 79%
    06:00 +1°C° 0 mm 2 mps 755 mmHg 79%
    07:00 0°C° 0 mm 3 mps 755 mmHg 78%
    08:00 0°C° 0 mm 3 mps 755 mmHg 76%
    09:00 0°C° 0 mm 3 mps 755 mmHg 75%
    10:00 +1°C° 0 mm 3 mps 755 mmHg 72%
    11:00 +2°C° 0 mm 3 mps 755 mmHg 68%
    12:00 +3°C° 0 mm 3 mps 755 mmHg 64%
    13:00 +4°C° 0 mm 2 mps 755 mmHg 65%
    14:00 +4°C° 0 mm 2 mps 755 mmHg 67%
    15:00 +5°C° 0 mm 1 mps 755 mmHg 68%
    16:00 +4°C° 0.1 mm 2 mps 756 mmHg 70%
    17:00 +4°C° 0.1 mm 2 mps 756 mmHg 73%
    18:00 +3°C° 0.1 mm 2 mps 756 mmHg 75%
    19:00 +2°C° 0.1 mm 3 mps 756 mmHg 76%
    20:00 +2°C° 0.1 mm 3 mps 756 mmHg 78%
    21:00 +1°C° 0.1 mm 3 mps 757 mmHg 79%
    22:00 +2°C° 0.1 mm 2 mps 757 mmHg 81%
    23:00 +2°C° 0.1 mm 2 mps 757 mmHg 83%
    Show more